{"data":{"norad_id":46028,"epoch":"2026-09-19T18:21:06.268032Z","epoch_age_seconds":81720,"freshness":"FRESH","line1":"1 46028U 20055B   26262.76465588  .00029052  00000+0  77543-3 0  9995","line2":"2 46028  53.1583 302.3751 0001309 343.0863  17.0097 15.37912743338659","mean_motion":15.37912743,"eccentricity":0.0001309,"inclination_deg":53.1583,"raan_deg":302.3751,"arg_perigee_deg":343.0863,"mean_anomaly_deg":17.0097,"bstar":0.00077543,"rev_number":33865,"period_min":93.633400630454,"perigee_km":451.38840368415,"apogee_km":453.17660751072,"semimajor_km":6830.4195055974,"source":"CELESTRAK","updated_at":"2026-09-20T09:00:38.459385Z"}}